ECMWFFLT1_850_thetae_123.txt.gz
Theta_e
344 345 344 345 345 345 345 345 346 346 347 348 349 349 350 350 351 352 354 354 351 345 341 342 344 345 347 349 349 349 349 351 352 351 353 355 356 356 356 355 354 355 355 353 353 355 354 354 354 352 348 344 344 344 344 344 344 345 345 346 346 349 351
344 345 344 344 345 344 345 345 346 347 348 349 349 349 349 349 351 352 353 354 352 347 343 342 342 343 346 349 351 350 348 352 355 354 355 355 353 354 357 357 355 354 355 355 354 354 353 352 350 350 348 347 347 346 344 344 343 345 348 345 345 347 345
344 345 344 344 344 344 345 345 346 348 348 349 349 348 348 349 351 352 353 353 353 351 349 345 343 344 346 347 351 351 348 352 355 354 355 353 351 355 356 355 354 354 354 355 355 354 352 350 347 346 347 349 350 347 345 345 343 344 347 344 346 348 345
345 345 345 345 344 344 345 346 347 348 348 348 348 348 348 349 350 351 352 352 352 352 353 350 347 348 348 346 350 352 349 350 354 355 356 353 351 355 356 353 353 355 355 355 355 354 354 353 348 345 347 349 350 348 345 347 346 345 346 345 348 351 348
345 345 345 345 345 344 345 346 346 348 348 347 347 347 348 350 350 352 351 350 350 350 352 352 350 351 351 349 350 352 350 350 353 354 355 354 353 354 355 355 354 354 354 354 354 353 353 354 352 349 346 346 347 347 346 347 347 346 345 345 349 351 351
346 346 346 346 346 345 345 346 346 347 348 347 347 347 348 349 350 351 351 350 349 348 350 351 350 351 352 351 351 352 352 351 351 353 354 354 355 355 354 355 354 353 354 354 354 353 352 354 355 353 350 350 351 352 351 350 350 349 346 344 347 351 354
349 347 347 345 345 346 345 345 346 347 347 348 348 347 347 350 351 351 351 350 348 348 348 349 350 350 351 351 350 351 352 351 350 352 354 355 355 355 355 355 354 354 354 354 354 354 353 353 355 355 354 354 354 355 355 352 352 353 350 345 344 346 351
352 350 349 347 345 345 346 346 346 347 348 349 349 348 347 348 350 351 351 351 350 348 348 348 349 350 351 351 350 350 351 351 351 351 352 354 354 355 355 355 355 355 355 355 355 355 355 354 355 355 355 355 355 356 358 352 350 355 355 351 346 345 351
353 351 350 350 348 346 345 346 346 346 349 350 350 349 347 346 350 352 353 353 352 349 349 350 349 350 351 351 350 351 350 350 350 350 350 351 353 353 354 354 355 355 355 355 355 355 355 354 354 354 354 356 356 355 356 351 348 354 357 354 348 346 352
355 353 351 350 348 345 345 346 346 346 349 352 353 352 349 347 351 355 355 356 355 351 351 351 349 350 352 352 350 350 350 349 349 349 348 348 349 351 352 352 354 355 354 355 354 354 355 354 356 355 352 354 355 351 351 351 349 353 356 353 350 348 349
356 356 355 353 350 347 346 346 345 346 350 355 357 355 353 351 354 358 358 359 357 355 354 353 350 350 352 351 351 350 350 349 348 348 347 347 347 348 349 350 352 354 354 353 352 353 354 354 356 357 352 352 355 351 348 350 351 353 355 356 355 353 353
358 358 355 355 354 353 352 351 349 351 354 357 358 357 357 356 358 359 360 359 358 357 357 355 351 351 352 351 351 351 350 349 348 347 347 346 345 345 346 346 348 351 352 352 351 351 354 354 355 356 353 352 356 355 350 348 351 351 352 357 358 356 355
359 357 353 353 354 354 356 356 356 357 358 358 357 357 358 358 358 359 358 359 359 357 356 356 353 352 352 350 351 351 349 349 349 347 345 346 345 344 345 345 346 347 349 350 350 350 352 353 354 355 355 354 356 357 353 349 350 350 348 352 357 357 356
356 356 354 355 353 352 355 358 358 359 359 359 358 357 358 358 358 358 357 358 359 356 356 356 352 350 348 347 351 350 346 347 349 348 347 347 346 345 345 345 345 345 346 347 348 348 348 349 351 353 354 354 354 355 354 351 351 352 349 348 351 354 355
353 353 354 354 354 352 354 355 355 356 356 358 359 359 359 358 358 357 356 357 357 354 355 355 353 352 349 347 349 347 344 346 349 349 349 349 349 348 348 347 346 346 345 346 346 347 346 346 347 348 350 352 352 352 352 351 351 352 351 350 349 351 352
352 352 352 353 353 353 351 349 349 349 349 351 353 356 358 358 357 356 355 356 355 353 353 353 353 354 352 350 350 347 345 346 347 347 348 348 349 349 349 349 349 348 348 347 347 346 346 346 345 345 346 348 350 350 350 348 348 349 350 351 350 350 352
351 352 353 352 353 353 349 346 346 346 346 344 343 348 353 355 356 356 355 356 355 354 354 354 354 354 354 355 353 349 347 346 345 345 346 346 348 348 348 348 349 350 351 351 350 348 347 346 346 345 345 345 346 348 348 347 346 346 347 348 347 347 349
351 352 353 353 354 354 352 350 349 349 349 346 344 347 351 353 355 355 355 355 354 353 354 353 353 355 357 358 356 351 349 347 345 345 346 346 347 348 348 347 348 350 350 350 352 351 349 349 348 346 344 344 344 344 345 345 345 345 346 346 344 342 340
352 351 352 353 353 353 353 354 353 352 351 350 350 351 351 352 353 353 354 354 353 353 353 353 353 354 356 357 355 354 353 351 350 351 350 348 348 349 349 349 349 351 351 350 351 352 351 351 350 347 346 345 344 344 344 344 345 345 345 345 344 340 337
351 351 350 350 350 350 351 352 352 352 353 352 352 352 351 351 352 352 352 352 352 353 353 352 353 353 353 353 353 353 353 351 351 351 348 346 346 347 348 349 350 351 351 351 350 351 352 353 353 352 351 348 347 348 349 348 347 346 346 345 343 340 337
349 348 347 347 348 348 349 350 350 350 351 352 352 351 352 352 352 351 351 350 350 351 351 351 350 350 350 350 349 350 350 349 349 348 345 343 344 345 346 348 349 349 350 351 350 350 351 351 353 355 355 354 352 352 352 352 350 349 348 346 343 341 339
347 346 345 346 346 346 347 347 347 347 348 350 351 351 351 351 351 351 351 349 348 348 348 349 349 349 349 348 348 349 349 350 350 349 348 348 349 350 350 350 351 351 351 350 350 351 351 352 353 353 354 355 354 353 353 352 350 349 348 345 343 343 343
345 343 344 344 344 344 344 344 344 344 346 347 348 348 348 349 350 350 349 348 348 349 348 348 347 348 349 348 348 349 349 350 351 351 350 351 351 352 353 353 353 353 353 352 352 353 353 353 353 353 353 353 353 352 352 350 349 349 349 347 346 345 347
342 342 343 342 342 342 341 342 343 343 344 345 344 344 344 345 346 347 347 348 347 347 347 346 346 347 348 347 347 348 348 349 349 350 350 351 351 351 352 352 353 353 352 352 352 353 353 353 354 353 353 353 353 352 352 350 349 351 351 351 350 349 350
341 341 341 340 340 339 338 338 339 340 341 341 341 341 341 342 343 343 343 344 344 344 344 344 344 344 344 343 343 344 345 346 347 348 349 350 350 350 350 351 351 350 350 350 351 351 351 351 351 352 352 352 351 352 351 350 350 351 352 352 352 351 351
339 338 338 337 337 336 335 333 334 336 336 334 335 335 336 337 339 339 338 339 340 340 340 340 340 340 340 340 341 342 343 344 345 346 348 348 348 347 348 348 347 346 345 346 347 347 347 348 348 348 349 349 349 350 351 350 351 351 351 350 350 351 350
334 334 334 333 332 333 332 331 332 332 330 330 331 331 329 329 329 329 330 332 333 335 334 334 334 335 336 336 337 339 342 343 344 345 345 346 345 344 344 344 343 342 341 342 342 343 343 344 343 343 344 344 345 346 347 347 348 349 349 348 348 348 348
333 331 330 330 330 330 330 330 329 324 323 327 330 328 326 325 323 321 321 323 324 326 326 326 327 329 330 331 333 335 337 337 339 341 341 341 341 341 340 340 339 338 339 339 339 339 339 339 339 339 338 336 336 337 338 339 341 342 343 342 341 341 341
331 328 326 328 328 326 324 324 322 320 321 325 326 323 320 320 319 320 321 320 318 318 319 321 323 324 325 328 330 332 331 329 330 333 335 336 337 336 336 337 338 337 337 337 337 336 336 336 336 336 335 333 332 332 331 330 330 330 331 330 329 329 328
331 328 328 329 327 325 323 323 324 325 325 326 326 322 317 314 315 317 319 319 318 316 314 315 317 316 318 321 323 325 328 327 326 327 327 329 330 331 330 332 335 335 335 336 336 336 336 336 336 336 336 335 334 334 333 332 329 326 324 323 322 322 321
332 330 331 330 328 327 327 327 328 328 327 328 326 319 312 311 313 316 317 316 316 316 313 314 316 316 318 322 323 325 329 330 328 327 324 321 325 329 330 330 331 331 332 334 335 335 335 335 335 335 335 335 336 335 335 335 333 329 325 321 320 319 319
332 331 331 330 329 328 328 328 328 327 326 326 324 319 316 313 312 312 311 309 310 312 311 312 314 315 316 318 319 323 328 329 329 328 325 323 326 330 331 331 332 332 332 333 334 333 332 332 333 332 332 333 335 335 334 333 332 332 331 328 326 325 324
332 331 330 329 329 327 327 327 326 325 325 325 325 324 322 317 312 309 311 314 315 311 307 307 310 311 310 312 315 320 327 329 329 328 327 326 327 328 329 330 331 329 328 330 332 332 331 330 330 330 330 332 333 333 332 331 331 331 329 327 327 328 329
330 330 329 329 329 327 327 327 326 325 324 323 323 322 319 316 314 315 320 325 323 315 308 307 307 308 311 316 320 324 325 326 326 328 328 328 328 328 328 330 330 328 328 330 331 330 329 329 329 328 329 331 332 331 331 330 330 328 324 318 318 322 324
328 327 327 328 328 324 323 325 325 323 320 320 319 317 314 314 315 316 321 322 318 313 311 309 308 311 318 322 324 323 321 320 321 327 329 328 328 330 328 328 329 329 328 328 328 328 329 330 329 327 328 330 330 330 330 329 328 328 324 317 314 315 316
326 325 325 327 326 322 319 319 318 316 315 315 314 312 310 310 311 315 319 317 312 311 312 310 313 319 323 325 324 322 323 324 325 328 329 327 328 328 326 326 328 328 326 323 321 321 324 327 327 327 328 328 327 327 327 328 328 327 324 317 314 314 314
325 323 322 323 323 320 318 317 315 313 313 313 312 311 311 310 308 311 314 312 309 310 309 311 318 323 324 325 323 320 323 327 327 326 328 328 328 327 324 324 326 326 323 320 316 314 315 317 320 323 324 324 323 322 321 323 325 324 320 316 315 315 315
323 322 321 321 320 319 319 318 316 315 315 314 312 311 311 311 309 309 309 307 308 309 307 309 318 324 325 324 320 314 319 326 325 323 325 327 326 326 325 325 325 324 322 320 318 316 314 312 313 315 316 319 321 321 318 317 318 318 317 316 317 317 316

ECMWFFLT1_850_thetae_129.txt.gz
Theta_e
346 348 348 347 346 348 349 349 349 349 348 349 349 350 352 352 352 351 346 342 343 345 346 347 346 346 347 347 346 347 347 349 349 347 347 348 347 347 345 345 347 347 346 345 345 345 345 343 343 344 343 342 343 343 343 343 343 345 347 349 349 346 345
345 348 348 347 347 348 348 348 348 347 348 348 349 351 352 352 353 352 347 342 342 343 344 346 346 346 348 348 347 347 346 347 347 346 347 347 346 347 346 345 347 347 346 346 346 346 346 347 349 347 343 341 341 342 343 342 342 343 344 346 346 344 344
345 346 347 346 347 347 347 348 348 347 347 348 349 351 351 353 353 353 349 342 341 343 342 345 347 346 348 350 348 347 346 345 346 347 346 345 346 348 347 346 347 346 348 348 347 347 347 349 351 349 344 342 341 342 343 343 342 342 342 343 343 342 344
347 346 346 346 346 346 347 347 347 347 347 347 349 350 351 353 353 353 351 344 340 343 342 343 345 345 347 349 348 347 347 345 345 347 346 346 347 348 347 348 348 347 350 350 348 348 347 348 349 348 345 343 342 342 343 343 342 341 341 342 343 342 343
348 346 346 346 346 346 347 347 346 346 347 347 348 350 350 351 353 353 352 348 341 341 343 343 344 344 345 347 346 346 347 347 346 346 346 346 348 348 348 350 350 349 350 351 349 347 347 346 347 347 346 345 344 343 343 343 342 341 340 342 344 343 344
348 346 346 346 346 346 347 347 346 345 347 347 348 350 350 350 351 351 353 352 345 341 342 343 343 343 344 346 345 345 346 347 346 347 348 349 348 348 348 349 350 350 349 350 350 349 348 347 347 346 345 346 345 343 343 343 342 342 341 342 344 344 344
347 346 346 346 346 347 347 346 346 346 347 347 347 350 351 350 351 351 352 353 349 344 342 342 342 341 342 344 344 344 344 344 345 347 350 351 349 347 349 350 349 349 349 351 352 351 351 350 348 346 345 345 344 344 344 344 343 343 342 342 344 345 344
345 346 346 345 346 347 347 346 346 347 347 347 348 350 351 351 351 351 353 353 352 349 345 343 343 342 340 341 344 346 345 342 344 347 349 351 350 348 349 351 350 349 350 352 352 352 352 352 350 347 346 345 344 345 345 345 345 344 344 344 345 345 344
350 350 347 346 346 346 347 346 346 347 347 348 349 350 351 351 352 352 353 353 354 353 349 347 348 348 342 339 345 351 350 344 343 346 349 351 351 349 350 352 353 353 353 352 352 351 351 352 351 350 350 348 346 347 348 349 349 346 344 345 345 344 345
353 352 346 346 346 345 346 346 345 346 347 348 349 349 350 350 351 352 352 353 353 353 352 351 352 352 348 343 347 353 353 349 346 346 347 350 350 350 353 355 354 354 354 352 352 352 351 352 352 352 353 351 351 354 353 352 352 349 347 347 347 347 346
354 352 346 347 347 345 346 346 345 346 347 348 349 349 349 350 350 351 352 352 351 351 351 351 352 353 350 347 349 352 352 351 351 350 347 349 351 351 353 355 354 354 354 353 353 353 353 353 353 354 354 353 354 356 355 354 354 352 350 348 350 351 349
354 352 349 349 348 345 345 345 345 346 347 349 349 349 348 349 349 351 351 351 351 350 349 350 351 352 351 349 350 351 351 351 353 353 350 350 352 353 353 354 354 354 353 354 354 354 354 354 353 354 354 353 353 354 354 354 354 353 351 349 351 354 353
353 352 350 349 348 345 344 345 345 346 347 348 349 348 348 349 349 350 350 350 350 349 349 349 350 351 351 350 349 349 351 351 351 352 352 351 351 352 352 352 352 353 353 354 354 353 354 354 354 354 354 354 354 352 351 352 352 352 350 350 353 356 356
353 352 351 350 348 346 346 347 345 345 348 348 348 348 348 348 348 349 350 350 349 349 348 349 349 349 350 350 349 348 350 351 351 351 352 351 350 349 350 350 350 349 349 350 351 352 353 353 353 353 354 354 355 355 353 353 354 354 350 349 353 356 356
354 352 351 350 348 345 346 348 347 346 347 348 348 349 348 348 348 349 350 350 349 349 349 348 349 349 349 350 350 349 349 349 350 351 350 350 349 348 347 348 348 347 346 346 347 349 351 352 352 352 352 353 355 356 354 354 355 355 353 351 351 352 354
353 351 351 352 352 349 346 347 348 348 348 349 349 349 349 348 349 350 351 351 349 350 349 349 349 349 349 349 350 350 349 348 348 349 349 349 348 347 346 347 347 347 346 346 346 346 347 350 350 350 350 350 351 352 353 353 354 355 355 353 350 350 351
352 350 350 353 355 354 352 349 348 348 349 350 350 351 350 350 349 349 350 350 351 351 350 349 349 350 349 349 349 350 350 349 348 347 347 348 348 346 346 345 345 346 348 348 347 346 345 347 348 347 347 348 347 348 350 351 351 351 352 351 349 349 348
351 350 349 352 354 353 353 353 352 352 349 348 350 351 351 351 349 348 348 350 351 351 351 351 349 349 351 350 349 351 351 352 351 348 347 349 349 347 346 345 345 345 347 349 348 347 345 346 347 348 348 347 347 347 348 347 347 347 348 348 348 347 346
349 348 349 351 352 352 353 354 355 354 352 351 352 352 353 354 352 349 348 349 350 351 352 352 346 345 350 352 351 351 351 352 352 350 348 347 348 347 346 345 345 344 345 347 347 347 346 346 346 346 347 346 347 347 346 345 344 344 345 346 347 346 346
346 346 348 349 350 350 351 353 355 355 354 355 355 354 355 355 353 352 350 348 348 347 348 347 341 340 348 352 352 352 352 353 352 350 347 345 345 345 345 344 344 344 344 345 346 346 346 346 346 346 346 346 346 347 346 345 344 343 344 345 346 345 345
346 347 347 348 350 350 349 350 353 355 354 355 355 355 354 355 355 354 353 350 347 346 347 347 344 344 350 354 355 353 353 354 354 351 348 346 345 345 345 343 340 340 343 345 346 346 346 346 346 346 346 345 345 345 346 346 345 344 343 343 343 343 344
347 347 348 349 350 350 349 348 349 352 352 352 352 352 351 354 356 356 355 355 353 354 355 354 353 353 355 356 356 354 354 355 356 354 351 350 349 348 346 343 340 340 343 345 346 346 346 346 347 347 347 348 347 346 346 345 344 344 343 343 342 343 344
345 345 346 347 348 349 349 348 349 351 352 351 350 349 349 351 353 355 356 355 355 356 357 356 355 356 356 356 356 354 354 354 355 355 355 354 354 351 347 345 344 344 347 348 347 347 346 346 347 347 348 349 349 348 348 348 346 345 345 345 344 344 345
343 343 343 344 345 345 346 347 348 348 350 351 351 350 350 350 350 352 353 352 352 354 355 355 354 354 354 355 355 355 355 355 355 356 356 355 354 352 350 350 349 350 350 350 349 348 347 347 347 347 347 347 348 349 350 351 350 349 348 347 347 346 347
341 341 341 342 343 343 343 345 345 345 347 348 348 349 349 348 348 350 351 350 350 352 353 353 353 353 353 354 354 354 354 354 354 355 354 354 353 352 351 351 351 350 350 349 348 347 346 346 347 347 347 348 349 350 350 352 352 351 351 350 349 350 350
340 340 340 340 341 341 340 341 342 343 345 345 345 347 346 345 345 347 349 349 349 350 350 350 350 351 351 351 351 352 351 351 352 352 352 351 351 351 351 351 350 350 349 348 349 349 349 349 349 350 350 350 351 351 351 351 352 352 352 352 352 352 351
339 338 338 337 337 337 336 336 337 339 340 341 342 342 343 343 344 345 346 346 347 347 345 344 345 346 347 348 347 348 348 348 348 348 348 347 347 347 348 347 348 349 349 349 349 349 349 348 347 349 350 350 351 351 351 351 351 351 351 351 351 351 351
338 337 337 335 333 334 334 334 333 334 334 336 338 338 339 341 343 344 343 343 343 342 341 341 342 343 344 345 344 344 345 346 345 346 346 344 343 343 344 343 344 345 346 346 346 345 343 341 341 343 346 347 347 347 347 347 348 348 348 348 348 348 348
335 335 335 334 333 332 332 332 332 332 331 332 335 337 337 339 340 341 340 340 339 338 338 340 340 340 341 342 342 343 343 342 342 342 342 340 340 340 341 341 340 341 342 342 342 340 338 337 337 338 339 339 338 338 338 337 336 336 337 338 341 342 343
333 334 333 333 332 331 330 330 330 328 326 325 326 329 333 337 338 337 337 337 335 335 337 337 337 337 337 337 338 340 340 339 339 339 339 339 338 337 338 338 337 337 338 339 338 337 336 337 338 337 336 336 335 334 333 333 330 327 325 327 330 333 335
331 330 328 327 327 327 326 324 321 317 315 315 316 317 321 324 326 327 328 328 327 328 330 330 329 329 329 329 331 332 332 331 331 332 332 330 328 329 332 335 336 337 336 336 335 336 336 336 337 338 336 336 336 335 334 334 332 328 325 323 324 324 325
325 326 326 327 328 327 323 318 316 314 313 312 312 313 314 313 313 314 316 316 318 319 319 321 322 322 325 327 329 328 326 324 322 324 325 324 324 328 331 330 330 332 336 337 336 336 336 335 335 335 334 335 337 336 334 334 333 330 328 327 323 321 320
324 326 328 329 329 328 324 323 323 322 319 315 312 310 311 312 311 311 311 311 312 312 312 315 316 317 321 325 326 327 328 329 328 328 327 328 330 332 332 330 326 324 328 332 330 327 330 333 334 334 334 335 337 336 335 335 333 331 329 328 325 321 320
326 328 329 329 329 327 326 327 328 326 324 320 315 310 311 312 312 312 312 311 309 308 309 310 310 311 313 315 318 324 328 330 331 329 328 329 330 330 330 332 328 322 323 327 326 321 323 329 332 332 332 334 335 335 335 334 333 331 330 329 328 327 326
328 329 329 329 328 327 326 326 326 324 322 319 315 313 313 314 313 313 313 312 309 307 307 307 307 308 309 310 316 324 329 330 330 329 328 329 330 329 329 331 329 325 325 328 330 327 327 330 331 331 331 332 333 334 334 333 332 332 331 331 330 329 328
330 330 329 328 328 328 325 320 318 317 315 314 314 314 314 314 314 313 313 311 309 307 307 306 307 308 308 309 313 320 325 328 328 328 328 328 328 329 330 330 330 329 328 329 331 331 330 330 330 330 330 331 331 332 332 332 332 331 330 330 330 328 327
330 330 329 328 328 328 323 317 315 315 314 314 314 314 314 316 317 315 314 312 311 310 308 307 308 310 311 311 312 314 320 325 327 327 329 329 327 327 328 328 329 329 328 329 329 329 329 327 326 326 326 327 328 329 329 329 329 329 328 328 326 324 322
330 330 328 328 328 326 320 317 317 318 317 317 316 313 313 316 317 317 316 314 312 311 310 309 312 316 318 316 312 310 315 323 327 327 328 328 327 327 327 326 325 325 325 325 325 325 324 323 321 320 318 318 321 324 325 326 325 325 324 323 319 316 313

ECMWFFLT1_850_thetae_132.txt.gz
Theta_e
345 345 345 345 345 346 347 347 348 349 350 350 350 350 350 349 348 346 345 345 345 346 345 345 344 342 341 343 344 344 346 346 347 349 349 347 349 350 349 349 348 347 346 344 342 342 342 342 341 342 342 342 340 340 344 345 345 345 346 346 344 341 342
345 346 346 345 346 346 347 347 348 349 349 350 350 350 350 350 349 348 347 345 344 345 345 345 345 343 343 344 343 343 347 348 346 348 349 348 349 349 348 347 347 347 346 345 343 343 344 343 341 341 342 342 341 341 342 343 344 344 345 347 345 343 343
346 346 346 346 346 347 347 347 348 348 349 349 350 350 350 349 349 349 349 346 344 345 345 345 345 345 345 345 344 344 348 348 347 348 347 347 348 347 346 345 345 346 346 345 344 345 346 344 342 342 342 342 341 342 342 342 343 343 343 345 346 344 344
346 346 347 346 346 347 347 348 349 349 349 349 349 349 349 349 349 349 350 347 343 344 346 346 346 346 345 346 345 345 347 348 348 348 346 346 346 346 346 344 344 346 346 345 345 345 347 346 343 343 344 343 341 341 342 342 342 342 341 343 343 342 342
346 346 347 346 346 347 348 348 349 349 349 349 349 350 349 349 349 350 350 347 343 342 344 345 346 346 346 347 346 346 348 347 346 346 345 345 345 346 347 345 344 346 345 346 345 345 347 347 344 344 345 345 343 341 341 342 342 342 341 341 342 342 342
346 346 347 346 346 348 348 348 349 349 349 349 349 349 349 349 349 350 351 349 344 341 342 344 345 346 346 347 348 347 347 346 345 345 345 345 345 346 347 346 345 346 345 347 347 346 347 347 346 346 346 346 345 343 342 342 342 342 341 340 341 342 343
346 346 347 346 346 347 348 348 348 348 348 349 349 349 349 349 349 349 350 351 347 341 341 342 344 346 346 346 348 348 347 346 344 344 345 345 345 347 347 346 346 347 346 347 348 348 347 347 347 347 347 346 345 344 343 342 343 342 341 340 340 342 343
347 347 347 347 346 347 348 348 348 348 347 347 348 348 348 349 350 350 350 351 349 343 340 341 342 344 345 346 348 348 347 346 345 345 346 346 346 347 347 347 348 349 348 347 349 349 347 346 348 348 348 347 345 344 344 343 344 343 342 342 341 342 343
348 348 347 346 346 346 347 347 348 348 347 347 348 348 349 350 350 350 349 351 351 347 341 340 342 343 344 344 346 346 346 346 346 347 347 346 347 348 347 347 350 349 348 348 349 350 349 349 349 350 350 348 345 344 344 345 346 345 343 343 343 343 344
349 348 347 346 346 346 347 347 347 347 347 347 348 348 349 350 349 349 349 350 351 350 345 341 341 342 342 343 344 345 345 344 344 346 347 346 346 348 347 348 350 350 349 349 350 350 350 350 350 350 349 349 347 345 344 346 348 349 347 346 345 346 346
349 348 348 347 346 346 347 347 347 347 347 347 347 348 348 349 349 349 350 350 350 351 349 344 341 340 342 342 343 345 345 345 344 344 345 346 348 349 348 348 351 351 351 352 352 350 349 350 351 350 349 350 350 347 346 349 351 352 352 350 348 348 349
349 348 350 349 347 347 347 346 347 347 346 347 347 347 347 347 349 350 350 350 350 351 350 347 342 340 341 341 342 344 344 347 349 347 344 346 349 350 349 350 352 353 353 353 353 352 351 351 352 351 349 351 352 351 350 351 353 354 353 353 351 349 350
347 347 351 352 349 348 346 345 346 346 345 346 346 347 347 347 349 350 350 350 350 350 349 347 344 342 342 343 345 344 344 349 352 349 345 345 348 349 350 351 353 352 352 353 353 353 353 352 353 352 351 352 353 353 352 352 353 353 353 354 352 350 349
347 348 352 352 349 348 346 344 346 347 347 346 346 347 347 347 348 349 349 349 350 350 349 347 346 345 345 347 349 347 346 351 352 349 347 347 347 348 351 352 352 352 352 352 352 352 352 353 353 353 352 353 353 353 353 352 352 352 352 352 350 349 348
349 349 352 351 348 348 346 344 344 346 348 348 347 348 348 348 349 349 349 349 349 351 350 348 347 347 347 350 351 349 347 349 350 349 349 350 349 349 351 352 352 351 351 351 351 351 351 352 353 353 353 353 353 353 353 353 352 350 351 351 349 348 348
350 350 351 351 349 348 347 345 344 345 348 350 348 348 349 349 349 349 349 350 350 350 350 349 349 348 348 349 351 350 349 348 348 349 350 352 351 350 351 351 352 351 349 348 347 347 349 351 352 353 352 353 353 353 353 353 353 351 351 352 351 350 350
351 351 351 351 350 349 347 346 345 344 347 350 349 349 349 349 349 349 349 350 350 351 350 349 349 349 349 349 349 350 350 349 348 349 350 351 351 351 350 350 350 350 349 349 347 346 347 348 349 350 351 351 351 352 353 352 352 351 352 352 352 351 350
350 349 350 351 350 350 348 346 347 347 347 349 349 350 349 349 349 349 350 350 349 350 350 349 349 349 349 349 348 349 350 349 349 349 350 351 351 350 349 348 348 348 348 348 348 347 347 348 348 348 349 349 348 349 350 349 349 350 350 351 351 351 350
347 346 348 350 350 351 349 346 347 348 348 348 350 351 351 350 350 351 351 352 352 351 350 350 349 350 350 349 349 350 350 350 350 349 350 350 350 350 349 348 347 347 346 346 346 347 347 349 349 348 347 347 347 346 347 347 347 348 348 347 347 348 349
345 345 347 349 350 351 350 348 347 348 349 350 352 352 351 351 352 352 352 352 353 352 350 349 349 349 350 349 349 350 350 351 351 349 349 350 350 349 348 348 347 346 345 346 346 347 347 348 348 348 347 346 346 345 345 346 346 346 345 344 344 345 346
346 346 346 348 348 349 350 350 350 350 350 352 352 351 351 352 352 352 351 351 352 351 349 349 348 348 349 349 349 349 350 351 351 350 350 351 350 349 349 349 348 346 345 346 346 347 348 348 348 347 346 345 346 346 346 346 345 345 345 344 343 342 344
346 346 347 347 346 346 349 350 350 350 349 349 350 349 350 352 352 352 350 348 349 349 350 351 351 350 350 350 349 349 351 352 352 351 350 350 350 350 351 351 350 347 346 345 346 346 348 348 347 347 346 346 345 345 345 345 345 345 346 345 344 343 343
345 345 345 347 347 347 349 350 350 350 348 347 348 347 347 349 351 353 352 350 349 349 350 353 354 354 353 352 351 351 351 352 352 351 349 347 347 348 350 352 352 350 348 347 347 346 346 346 347 347 346 346 346 345 345 345 345 346 346 346 346 346 345
344 343 344 345 347 348 349 350 350 350 350 350 349 349 349 350 352 353 353 353 352 352 352 353 352 352 352 352 352 352 351 351 353 353 351 349 347 346 347 350 352 352 350 350 349 348 347 347 347 347 347 347 347 347 347 347 347 347 347 347 348 348 347
341 341 342 343 345 345 346 348 349 350 350 350 349 349 349 350 350 351 351 351 352 352 353 352 350 349 348 348 350 351 351 351 353 354 353 351 350 347 346 349 352 354 352 350 349 349 349 349 349 349 348 348 348 348 348 349 349 350 350 350 350 350 350
339 340 340 342 342 343 344 345 347 348 348 348 348 348 348 349 349 349 348 349 349 349 349 349 348 349 350 350 351 351 351 352 353 354 353 351 351 349 348 350 353 354 353 351 349 349 349 350 350 349 349 348 349 350 350 350 351 352 352 352 353 353 352
337 336 337 338 339 341 342 342 343 344 344 345 345 346 346 347 347 347 347 348 348 348 348 348 348 349 351 352 351 351 352 353 353 353 352 351 351 350 350 351 352 352 352 352 350 350 350 350 349 349 348 348 349 350 350 350 351 351 352 352 352 352 352
335 333 333 334 335 336 338 338 340 341 341 342 343 344 344 343 344 344 345 346 346 346 347 347 347 347 347 348 348 349 350 351 350 350 349 348 348 348 348 349 350 351 350 350 350 350 350 348 348 348 347 347 348 349 348 348 349 349 349 350 350 350 350
334 332 332 333 333 334 335 335 336 337 338 339 340 341 341 342 343 343 343 343 341 341 343 344 345 344 343 343 344 345 346 346 346 345 345 344 344 345 344 345 346 346 346 345 345 344 343 342 341 342 342 341 341 342 343 343 344 344 345 346 346 347 348
334 333 332 332 333 332 330 330 332 334 335 336 337 338 339 340 341 340 340 339 338 338 340 342 342 342 341 341 341 341 341 342 342 342 342 342 342 342 343 344 344 344 343 341 339 338 338 337 336 336 336 335 333 332 332 331 331 332 333 334 335 338 341
334 333 331 331 331 327 321 320 323 325 326 327 330 331 332 334 337 337 337 336 335 335 337 338 339 341 341 340 339 339 339 338 338 338 339 339 340 340 340 340 341 340 340 339 338 337 337 338 337 336 335 333 332 331 330 328 326 325 325 324 325 327 330
329 328 328 328 326 320 314 313 314 314 315 316 318 319 319 322 327 330 332 332 331 329 329 331 333 335 336 336 336 335 334 332 330 329 329 330 333 336 337 337 337 337 336 336 336 336 336 337 337 336 335 335 335 334 333 332 331 329 327 325 323 323 323
327 327 328 328 324 318 314 313 312 312 312 313 313 312 312 313 315 317 319 320 320 319 320 321 324 327 327 327 329 329 328 326 324 323 324 325 327 332 334 334 335 336 337 336 336 335 335 335 335 335 335 336 335 334 334 334 334 332 331 329 327 326 325
327 327 328 328 326 322 319 318 316 313 311 310 310 310 312 313 313 312 311 311 310 312 314 315 318 322 323 323 324 325 326 325 324 324 326 328 328 330 330 328 327 331 333 333 330 327 327 330 331 333 335 336 336 336 335 334 334 333 332 331 330 329 328
326 327 328 327 327 325 322 319 318 316 313 311 311 312 313 315 316 314 312 311 308 308 310 311 313 316 319 319 320 323 324 325 324 325 328 329 329 330 329 327 325 325 325 326 324 322 323 325 328 331 333 335 335 336 335 334 334 333 332 331 331 330 329
327 329 328 327 327 327 324 320 318 317 315 313 313 313 314 315 317 317 316 312 308 308 310 312 313 313 313 316 320 323 325 326 327 327 328 329 329 329 330 329 328 325 324 327 329 328 328 329 329 329 331 331 332 333 332 332 331 331 330 331 330 330 329
329 328 328 327 327 328 324 319 316 315 314 314 314 313 313 315 318 318 316 312 308 308 310 314 317 317 316 319 324 326 327 329 329 328 328 328 329 329 329 329 329 328 328 329 331 330 330 330 329 328 327 327 327 328 328 328 328 328 328 328 327 327 326
329 329 328 327 328 327 322 316 315 316 315 316 316 314 313 314 315 315 314 312 310 309 310 313 317 318 318 320 324 326 326 327 328 327 327 328 328 327 328 328 328 329 328 328 328 328 327 327 326 325 324 322 322 321 321 321 322 322 321 320 318 317 315

ECMWFFLT1_850_thetae_135.txt.gz
Theta_e
341 342 343 344 345 346 347 347 347 346 346 347 346 347 347 348 349 348 347 346 344 343 342 343 343 343 344 345 345 345 346 346 347 347 346 346 347 348 347 345 344 343 343 342 340 340 341 342 342 341 341 342 341 341 344 346 346 345 346 346 344 343 342
342 342 343 344 344 346 346 346 346 346 346 347 347 347 348 348 348 347 346 345 345 344 343 343 343 343 344 345 346 346 346 346 347 346 345 345 346 348 348 347 346 346 346 344 342 341 341 341 342 341 341 342 341 341 342 345 346 345 346 346 345 345 343
344 343 343 344 344 345 346 346 346 347 346 346 346 347 348 348 347 346 344 344 345 344 344 343 343 343 343 344 344 345 346 346 346 345 344 345 346 347 348 348 347 348 347 346 345 343 342 342 342 341 341 341 341 341 341 344 345 344 345 345 346 346 344
345 344 343 344 344 344 345 346 346 346 346 346 346 347 348 348 348 346 345 344 344 344 344 344 344 343 343 342 342 343 344 344 344 345 344 346 347 347 348 348 348 348 347 347 346 344 343 343 343 342 341 341 341 340 341 343 343 343 344 344 344 345 345
345 345 344 344 345 345 345 346 346 346 346 346 346 347 348 347 348 348 347 347 346 344 344 344 344 344 344 342 341 342 343 342 343 345 346 347 348 347 348 348 347 346 346 346 346 345 344 344 345 343 341 342 341 339 339 341 342 342 342 342 342 343 343
345 345 345 345 345 346 345 346 346 346 346 346 347 347 348 348 348 349 348 348 348 347 345 344 344 344 344 343 342 343 343 342 343 346 347 348 348 348 348 347 346 345 345 346 346 346 345 345 346 345 344 344 343 341 340 340 341 342 342 342 341 341 342
344 345 345 345 345 345 346 346 346 346 346 346 347 348 348 348 348 349 348 348 349 348 346 344 344 344 344 344 343 344 344 343 344 346 347 348 348 347 346 346 346 345 344 345 346 346 346 345 346 346 346 346 346 345 343 341 341 342 342 342 340 340 341
344 345 345 346 346 345 346 347 347 347 347 347 348 348 348 349 348 349 349 348 349 349 347 343 343 344 345 345 345 344 344 344 345 346 347 347 347 346 345 345 346 346 345 345 346 347 348 347 346 347 346 346 347 347 345 344 343 342 342 342 341 340 340
344 345 346 346 346 346 346 346 347 347 347 347 348 348 348 348 348 348 349 348 349 350 347 343 341 342 344 345 345 345 345 345 346 346 346 345 346 346 345 345 347 347 346 347 347 348 350 349 347 347 346 346 347 346 346 345 344 343 343 342 342 341 341
345 345 346 346 346 346 346 347 347 347 348 347 348 349 349 349 348 348 349 348 349 350 348 344 340 340 342 344 345 345 346 346 347 347 346 344 345 345 345 346 347 347 347 348 348 348 349 349 348 348 348 348 347 347 345 344 344 344 344 343 342 342 342
346 346 347 346 346 346 346 347 347 348 348 348 348 349 349 348 348 348 348 348 348 349 350 347 342 340 340 342 344 344 345 347 347 346 346 345 345 345 345 346 347 347 348 349 349 348 349 350 350 350 350 350 349 348 346 344 343 344 345 346 345 345 345
347 347 347 347 346 346 345 346 346 347 348 349 348 348 349 348 348 348 348 347 347 348 349 349 345 341 340 341 343 344 344 346 346 345 345 346 346 345 345 346 347 347 348 349 349 348 349 350 351 351 350 349 349 349 349 346 345 345 347 349 348 348 348
348 348 348 347 347 346 346 346 346 347 348 349 349 348 348 347 347 347 347 347 348 348 348 349 348 345 341 340 341 342 342 343 344 343 344 344 344 345 344 346 347 347 348 350 350 350 350 350 350 350 350 349 349 350 350 349 349 349 349 350 350 350 349
349 349 349 348 348 347 346 346 346 347 348 348 348 348 348 347 346 347 347 346 347 349 349 349 350 348 345 341 340 341 340 341 342 343 343 342 342 343 343 345 348 348 348 351 352 352 352 351 351 351 350 351 350 350 351 352 351 351 350 349 350 350 350
349 349 350 349 349 349 348 346 346 346 347 347 348 348 349 348 347 346 347 347 347 348 349 349 349 350 348 343 340 340 339 339 341 341 342 343 343 343 343 345 348 348 349 351 353 352 352 352 352 352 352 352 351 351 351 352 352 351 350 350 349 349 349
349 348 348 348 349 349 347 346 345 346 346 347 347 348 349 351 350 348 347 347 347 348 349 349 349 350 348 345 340 339 339 339 339 340 341 344 346 345 344 344 347 349 349 351 352 351 352 352 352 352 352 352 352 352 352 352 352 352 352 351 350 350 350
348 347 347 347 348 348 347 346 345 345 346 347 347 348 350 351 352 352 350 348 347 349 350 350 350 350 347 344 341 340 340 341 341 341 342 344 346 347 346 346 348 350 350 351 352 351 351 352 352 352 352 352 353 353 352 352 352 352 353 352 351 351 351
348 348 348 348 348 349 348 346 345 345 345 346 347 348 349 350 351 352 352 350 349 349 350 350 351 350 347 345 344 344 344 344 345 346 346 345 346 347 348 349 349 350 351 351 351 351 351 350 351 350 351 352 353 352 352 352 352 352 352 352 351 351 352
349 349 349 348 348 349 349 347 346 345 345 345 346 347 348 349 349 350 350 351 350 348 348 349 350 351 350 349 347 346 346 348 349 349 348 348 348 349 350 351 351 350 350 350 350 350 350 349 349 349 349 351 352 352 351 350 349 350 351 350 350 351 351
348 348 348 348 347 347 347 347 347 346 345 345 345 345 346 347 349 349 349 350 351 350 348 349 350 350 353 353 352 351 349 350 350 350 349 349 349 349 350 351 351 351 350 349 349 348 348 348 348 348 348 349 350 351 350 348 348 348 348 348 348 349 350
346 346 347 348 348 348 348 348 348 347 346 345 345 345 345 345 347 349 350 350 352 352 351 351 350 349 351 353 353 353 352 352 351 350 350 350 349 349 350 350 350 350 350 349 348 348 347 346 346 346 346 347 348 349 349 347 346 346 346 345 345 346 347
344 345 346 347 348 349 349 349 348 348 347 347 346 345 344 345 347 350 351 351 352 352 351 350 350 349 348 349 349 350 351 351 351 351 350 350 349 349 349 349 349 349 349 348 348 348 347 346 345 345 346 347 347 347 347 347 346 345 345 345 345 344 345
344 344 345 346 347 347 348 348 348 349 349 350 349 348 347 348 349 350 351 351 351 350 349 349 350 350 348 349 349 348 349 349 350 351 350 350 350 350 349 349 349 349 349 349 348 349 349 347 346 345 345 347 348 347 347 347 347 346 345 345 345 345 345
343 344 344 344 345 346 346 347 348 348 349 350 350 350 350 350 351 351 351 352 351 350 349 349 350 351 350 349 349 348 347 348 350 351 351 350 350 350 349 349 349 349 350 350 349 350 350 349 349 348 346 346 348 348 347 347 347 346 346 346 345 346 346
341 343 344 343 344 345 345 346 348 348 349 349 349 349 348 349 349 349 349 348 349 349 349 348 348 349 348 347 348 348 346 346 348 351 352 351 351 351 351 350 349 349 350 351 350 350 351 350 349 349 350 349 349 348 348 347 347 347 347 347 346 346 346
340 341 342 342 343 343 343 344 345 347 349 349 349 348 348 348 347 346 346 347 349 351 352 351 350 350 348 348 349 350 349 348 349 351 354 354 353 353 352 351 349 348 348 350 351 352 353 352 350 349 350 350 350 350 350 350 349 349 349 349 349 349 349
338 338 339 339 340 340 341 342 343 345 346 347 347 348 348 348 348 348 348 349 351 352 352 351 352 351 349 348 349 350 351 351 351 351 353 354 354 354 353 352 351 350 350 350 351 351 352 352 350 349 349 350 351 351 351 351 351 351 350 350 350 350 351
335 335 335 335 336 338 340 340 342 343 343 343 343 344 345 346 346 347 348 348 348 349 348 348 349 348 348 347 348 348 349 350 350 350 350 352 352 352 353 352 352 352 352 352 352 351 350 349 348 349 349 349 350 350 350 350 350 350 350 349 349 350 351
333 333 332 331 332 335 338 339 339 340 340 340 340 341 341 343 343 344 345 345 345 345 345 346 346 346 346 345 345 346 347 348 349 349 349 349 348 349 350 350 349 349 348 348 348 347 346 345 345 347 348 348 349 349 348 348 347 347 346 347 346 347 347
332 332 329 325 324 330 334 336 336 337 337 337 338 339 339 340 341 342 342 341 341 341 342 342 343 343 343 342 342 343 344 344 345 345 345 345 344 344 345 345 344 344 344 344 345 344 343 343 342 342 344 345 345 345 344 341 340 338 338 339 341 341 341
331 330 327 321 317 320 324 328 330 330 330 332 334 337 337 337 338 339 339 339 338 338 340 340 340 341 341 340 341 341 341 341 342 342 342 342 342 342 343 343 343 343 343 343 342 342 340 339 337 336 337 338 338 338 336 334 332 330 328 329 331 333 334
328 327 323 317 313 313 315 318 319 319 319 322 327 331 333 334 335 335 335 334 333 334 336 336 337 339 339 339 338 339 339 340 341 341 341 341 341 341 341 342 342 342 340 339 338 338 337 336 335 335 335 335 335 333 331 331 330 327 325 325 325 326 326
327 326 323 318 316 314 313 313 313 314 313 314 316 319 322 325 326 327 326 325 326 328 330 329 330 333 336 337 338 338 338 339 338 339 340 339 338 337 338 339 339 337 337 336 336 336 337 338 337 336 334 334 334 333 332 332 331 329 328 328 327 327 326
328 328 326 324 322 319 315 312 310 310 311 312 313 314 314 314 314 314 314 314 317 320 321 322 323 326 329 331 332 332 333 333 332 330 331 331 331 332 333 334 335 336 336 335 332 330 331 333 334 334 334 334 335 334 333 333 333 332 331 331 330 330 330
327 328 328 327 325 323 318 315 313 311 311 312 315 315 314 312 311 310 309 309 311 312 314 318 323 325 325 325 326 327 326 325 325 325 326 327 329 329 328 328 328 330 330 329 327 324 325 327 329 330 333 335 335 335 334 334 334 333 332 331 331 330 330
326 328 328 327 327 326 321 315 314 313 313 313 313 314 315 313 311 310 309 307 307 308 309 312 318 322 321 320 324 327 327 324 324 326 328 329 329 329 328 327 327 327 326 326 327 327 327 328 328 330 332 334 334 334 334 333 333 332 330 330 330 329 328
327 329 328 327 328 328 323 316 314 315 316 316 314 313 314 314 313 312 310 308 307 307 308 309 312 315 316 315 319 324 327 326 326 328 329 329 329 329 330 329 329 327 327 328 329 330 329 329 328 328 329 330 330 331 331 331 330 328 327 326 324 322 320
328 329 328 327 328 328 322 316 315 317 318 317 316 314 315 316 316 315 314 312 310 309 309 309 310 313 314 316 318 322 326 327 328 328 328 328 329 329 329 329 329 328 328 329 329 329 328 327 325 324 323 322 323 323 323 323 322 320 319 317 314 313 312

ECMWFFLT1_850_thetae_138.txt.gz
Theta_e
339 339 339 340 342 342 341 341 342 343 344 345 346 346 347 347 347 347 347 346 345 345 345 343 340 338 338 338 338 340 343 346 346 346 346 347 347 347 347 347 344 342 340 339 338 339 340 340 341 341 341 340 340 340 341 343 343 344 344 344 346 346 345
338 339 339 340 342 342 342 342 342 343 344 345 345 346 346 346 346 347 347 346 345 344 345 343 341 338 338 339 340 340 341 343 345 346 346 347 347 347 346 347 346 343 341 340 339 339 340 340 341 342 341 340 340 340 340 341 341 343 344 344 345 347 346
339 339 339 340 341 342 342 343 343 343 344 345 345 345 346 346 346 346 347 347 346 345 344 343 341 340 340 340 341 342 342 343 344 346 346 347 347 346 346 347 347 346 344 344 343 341 340 340 341 341 341 340 340 340 340 340 340 342 344 345 345 345 346
340 339 339 340 341 341 342 343 343 343 344 345 345 345 345 345 346 346 347 347 346 344 343 343 342 341 341 341 342 343 344 344 345 345 346 346 346 346 346 347 347 347 347 347 346 344 343 342 341 341 341 340 340 340 340 340 339 341 344 344 344 344 345
342 340 340 340 341 342 343 343 343 343 344 344 345 345 345 345 345 347 347 346 345 343 342 343 343 342 342 342 342 343 344 345 345 345 345 345 345 345 347 347 347 347 347 347 348 347 345 344 342 341 341 341 340 340 340 340 340 341 343 343 343 342 343
343 341 341 341 341 342 343 344 343 343 344 344 345 345 345 345 346 347 347 346 344 342 342 343 343 343 342 342 342 342 343 343 344 345 345 345 346 346 346 347 347 346 346 346 347 346 346 345 343 343 343 343 341 340 340 340 340 341 341 342 342 341 341
345 343 342 341 341 342 342 343 343 344 344 344 344 345 345 346 346 347 348 347 345 344 344 343 343 343 342 342 342 342 342 341 341 342 343 344 345 346 347 348 347 347 346 345 345 345 345 345 344 343 344 344 343 341 341 340 340 340 340 341 341 341 341
345 344 343 342 342 342 342 343 343 344 344 344 345 345 345 346 346 347 347 347 347 347 346 345 344 343 342 342 343 343 342 340 341 342 342 342 344 346 348 348 347 347 347 346 345 344 344 345 345 344 344 345 345 344 345 344 342 341 340 341 341 341 341
345 345 344 343 342 342 342 343 343 344 344 345 345 345 345 346 346 347 347 347 348 348 348 348 347 345 343 343 343 343 342 341 341 342 342 342 343 346 347 347 347 347 346 346 345 344 344 345 345 345 345 346 345 346 347 347 346 344 343 342 342 342 342
345 345 345 344 343 343 343 343 343 344 344 345 344 345 345 345 346 347 347 348 348 348 348 348 348 347 344 342 343 343 343 342 342 343 343 342 343 345 346 346 346 346 346 346 346 346 345 346 347 348 348 347 346 345 346 346 346 345 344 343 343 342 342
344 344 345 345 345 344 344 344 344 344 344 345 344 345 345 345 346 347 347 348 347 348 348 348 348 347 344 342 342 343 344 343 343 343 343 343 344 345 345 345 345 345 346 347 347 347 347 347 348 350 349 347 347 347 347 347 345 344 344 343 343 343 343
344 343 344 345 345 345 345 344 344 344 344 344 345 345 345 346 346 346 347 348 347 347 348 348 348 347 344 341 341 342 343 343 343 343 344 344 344 343 343 344 344 345 346 347 347 348 349 349 349 350 349 349 349 349 349 349 347 345 344 343 343 344 344
344 344 344 344 345 345 345 345 345 345 345 345 345 345 345 345 346 346 347 347 347 347 348 348 348 348 346 342 340 340 341 342 342 343 344 345 345 344 343 343 344 344 345 347 348 348 350 350 349 349 349 350 350 350 350 349 348 347 345 344 345 347 348
346 345 345 345 345 345 345 345 345 346 346 345 345 345 346 346 346 346 347 347 347 347 348 348 348 349 348 345 342 340 339 340 341 343 344 345 345 345 344 344 344 344 345 346 347 348 349 349 349 349 350 350 350 350 350 350 349 348 347 347 348 350 351
347 347 347 346 346 346 346 346 345 346 346 346 346 346 346 346 346 347 347 347 347 347 347 348 347 348 349 348 346 343 340 339 340 342 343 344 345 344 344 344 345 344 345 346 346 347 348 350 350 351 351 351 350 350 350 350 350 350 350 350 351 351 351
348 348 348 347 347 347 346 346 346 345 346 346 347 347 347 347 347 347 347 348 348 347 347 348 347 347 348 349 349 347 344 340 340 340 341 342 343 343 343 343 343 343 344 346 347 347 348 350 352 352 352 352 351 351 351 351 350 350 350 351 352 352 351
348 347 348 348 348 348 347 347 346 346 345 345 346 347 347 347 347 347 348 348 348 348 347 347 348 347 348 349 349 349 348 344 341 340 340 341 341 342 342 342 342 342 343 346 347 347 348 351 352 352 352 352 352 352 352 352 351 350 351 351 352 352 352
348 348 349 348 348 348 348 347 346 346 346 345 346 346 347 348 347 348 348 348 348 347 347 348 348 348 348 349 349 350 350 349 345 341 340 340 340 341 341 343 344 344 344 345 347 348 349 351 352 351 352 352 352 352 352 352 352 352 352 352 352 352 353
348 348 348 348 348 348 348 347 345 345 345 345 345 346 346 346 347 348 348 348 349 348 348 348 349 349 350 350 350 349 349 349 348 345 342 341 341 341 341 344 346 346 346 346 347 349 350 351 352 352 352 352 352 352 352 352 352 352 353 352 352 352 352
347 347 348 348 348 348 348 347 345 345 345 346 346 347 347 347 347 348 348 348 349 349 349 349 348 349 350 350 351 352 351 349 346 344 343 343 344 344 344 345 347 347 347 348 348 350 351 351 351 351 350 350 349 349 350 350 350 351 352 352 351 351 351
345 346 347 347 347 347 347 347 346 345 345 344 345 345 346 347 347 348 348 349 349 350 350 351 350 351 350 348 350 351 352 352 349 345 343 346 348 348 348 348 347 347 348 349 350 350 350 350 350 349 348 348 347 348 347 347 348 348 349 350 350 349 349
344 345 345 346 346 347 348 347 347 347 345 344 344 344 345 345 346 347 348 348 349 350 349 350 351 352 351 348 347 347 348 349 350 349 348 348 349 350 350 349 349 348 348 349 350 350 350 349 349 348 347 347 346 346 346 346 346 346 347 348 348 348 347
343 344 344 345 345 346 347 348 348 348 348 347 347 347 346 345 345 345 346 346 347 347 348 350 351 351 351 348 347 348 347 346 348 350 350 350 349 349 350 350 350 350 350 350 349 349 349 349 348 348 347 347 346 346 345 345 345 346 347 347 348 347 347
342 343 344 344 345 345 346 347 348 348 349 349 349 348 347 347 346 345 345 345 346 345 347 349 349 349 349 347 347 348 348 346 346 348 349 350 350 349 349 349 348 348 349 350 350 349 348 349 349 348 347 347 347 346 345 345 344 345 346 347 348 348 348
340 342 342 343 344 345 345 346 347 347 348 349 349 349 349 348 347 346 346 346 346 346 348 348 347 347 347 347 348 349 348 347 347 347 347 349 350 349 350 350 349 347 346 348 349 350 350 349 348 348 348 348 348 347 347 346 345 344 346 347 348 348 347
337 339 340 341 342 343 344 344 344 345 347 348 348 349 349 348 348 348 348 348 348 348 349 349 348 347 347 347 347 348 348 347 347 347 347 348 348 348 349 350 350 349 347 347 348 349 350 350 350 350 350 350 350 349 348 347 346 346 347 347 348 348 347
333 336 338 340 341 342 342 343 343 343 344 345 345 346 347 347 347 346 346 347 347 348 348 348 349 349 349 349 349 348 347 346 347 348 349 349 349 349 348 348 348 350 349 348 347 348 349 350 351 352 352 351 351 351 350 349 348 348 348 348 348 347 347
327 332 337 338 339 340 340 341 341 341 341 342 343 344 345 346 346 345 345 346 346 347 347 347 348 349 349 349 349 348 348 348 349 349 350 350 350 349 348 348 349 350 350 349 348 347 348 350 350 351 351 350 351 351 351 350 349 350 350 350 350 350 349
322 327 333 336 336 337 338 339 339 340 340 340 341 341 342 344 344 344 344 345 344 345 346 346 347 347 347 346 346 346 347 347 348 348 348 349 349 348 348 348 348 349 350 350 348 346 347 348 347 347 347 347 348 349 348 349 349 350 350 350 350 349 349
319 319 326 330 331 331 334 336 337 338 338 338 339 340 340 341 342 341 341 342 341 342 342 343 344 344 343 342 343 344 345 345 345 345 344 345 345 345 345 345 345 345 346 346 345 344 344 344 344 344 345 345 346 345 343 342 343 344 343 344 345 344 344
317 314 316 319 321 321 322 327 331 334 335 336 337 337 337 338 339 339 338 338 339 340 340 340 340 340 340 340 341 341 342 342 342 342 342 342 342 343 344 343 343 343 343 343 342 342 341 341 341 341 341 341 341 339 336 334 333 332 332 333 335 336 336
318 316 313 313 314 314 314 316 320 325 329 332 333 334 334 335 335 334 333 333 334 337 338 338 338 338 338 338 339 339 340 340 340 340 340 340 340 341 341 342 341 341 340 340 340 339 338 337 337 336 336 336 334 332 331 330 329 329 328 327 328 329 329
323 320 317 314 312 312 312 312 313 316 319 322 324 326 327 328 328 328 328 329 330 330 331 333 335 337 335 334 333 332 333 333 332 331 332 334 336 338 339 339 338 337 336 335 335 335 336 336 335 334 334 334 333 332 332 332 332 332 331 330 329 329 329
326 324 322 319 316 313 312 311 312 313 314 314 315 315 315 316 317 318 320 323 323 323 322 325 329 330 330 329 327 326 326 326 325 325 327 330 331 333 335 336 335 334 332 330 328 328 329 331 332 333 333 334 334 333 333 333 333 333 332 332 331 331 331
327 326 325 324 321 316 314 313 314 314 314 314 314 313 312 311 310 310 310 312 313 313 316 322 326 327 327 326 327 327 325 324 325 327 329 330 329 328 329 329 328 328 327 327 326 325 325 326 329 333 334 334 334 333 333 333 334 333 332 332 331 331 330
328 327 327 327 323 317 314 315 316 314 313 314 314 314 313 312 311 310 308 308 307 307 309 314 319 322 322 322 325 327 326 325 326 328 329 330 330 329 329 328 326 326 326 327 328 328 328 328 329 332 333 334 333 333 332 332 332 331 331 330 329 328 326
328 327 327 327 325 319 315 317 317 315 314 315 316 316 317 317 316 315 313 311 310 309 309 310 312 313 312 314 319 323 325 326 327 328 328 328 329 329 329 328 328 327 328 329 329 328 328 328 328 329 330 331 332 332 331 331 330 329 328 326 323 321 317
328 327 327 327 325 320 316 317 319 317 317 317 318 318 319 320 320 320 320 317 315 313 312 313 313 313 311 311 314 318 322 326 327 327 328 328 327 328 328 327 327 328 327 327 326 324 323 322 322 323 323 324 325 326 326 326 325 323 320 317 315 314 311

ECMWFFLT1_850_thetae_141.txt.gz
Theta_e
339 339 340 340 340 339 340 340 340 341 340 341 343 344 346 346 347 348 347 345 343 342 341 340 339 339 338 338 337 339 343 345 346 347 346 347 346 346 346 345 345 342 341 339 339 338 338 339 340 340 342 342 342 342 342 342 342 343 344 344 344 345 345
340 339 340 339 340 339 339 340 340 340 340 341 342 344 346 346 347 347 348 347 345 343 342 340 338 338 338 338 337 337 341 343 346 347 347 347 346 346 346 347 346 345 343 340 339 339 339 340 341 341 342 343 342 342 342 342 342 343 344 344 344 345 345
340 340 340 339 340 339 340 340 340 340 341 341 342 343 345 346 346 347 347 348 346 345 343 341 339 338 338 338 337 337 338 340 344 346 346 346 346 346 346 346 346 346 345 343 341 340 340 341 341 341 342 343 342 341 341 341 341 341 343 344 345 346 346
340 339 340 339 340 339 340 340 340 341 341 341 341 343 344 345 345 346 346 347 347 346 344 342 341 340 338 338 338 338 338 339 340 343 344 345 345 346 346 346 346 346 346 345 343 343 343 343 342 341 342 343 343 341 341 341 340 341 342 342 344 346 346
339 339 340 339 339 340 339 340 340 340 340 340 341 343 343 345 345 346 346 347 348 347 345 344 343 341 340 339 339 338 339 340 341 341 343 344 345 346 346 346 346 346 347 346 346 346 346 346 344 342 342 342 342 342 341 342 340 341 342 342 344 346 345
340 339 339 339 339 339 339 340 340 340 340 340 340 342 343 345 345 345 346 346 347 347 347 346 345 343 341 340 340 339 340 341 342 342 343 344 345 346 345 345 345 346 347 348 347 347 347 347 345 344 342 342 341 341 340 341 340 340 342 343 344 345 344
340 339 339 339 339 339 340 340 340 340 340 340 340 342 343 345 345 345 346 346 347 348 348 347 346 343 342 342 341 341 341 342 342 343 344 344 345 345 345 345 346 347 348 347 347 347 347 347 346 344 343 342 341 341 340 341 341 341 342 343 344 343 343
343 340 339 339 339 339 340 339 340 340 340 340 341 342 343 344 345 345 346 346 347 348 347 346 345 344 343 342 342 341 342 341 342 342 343 343 344 343 343 344 346 347 348 347 347 347 346 346 346 345 344 343 342 342 342 342 342 342 342 342 343 343 342
345 342 341 340 339 339 340 339 340 340 340 340 341 342 343 343 345 345 346 345 347 347 345 344 344 344 343 343 342 342 342 341 342 341 341 341 341 341 342 343 345 347 347 347 347 347 346 345 344 345 345 344 344 344 344 344 344 344 343 342 343 343 341
345 344 343 341 341 340 339 339 340 340 340 340 341 342 343 343 344 345 345 346 346 347 346 345 344 344 344 343 343 343 343 342 342 342 341 340 340 341 341 343 346 347 347 347 347 346 346 345 344 344 345 344 344 345 345 345 346 346 346 345 344 343 341
345 344 344 343 342 341 340 340 340 340 340 340 341 342 342 343 344 344 345 345 346 347 347 347 347 346 346 345 344 343 343 343 343 343 342 340 341 341 341 342 345 346 346 346 346 346 346 346 345 345 345 345 346 346 346 346 347 346 347 346 345 344 343
345 345 344 343 343 342 341 340 340 340 340 341 341 341 342 343 343 344 344 345 346 347 347 348 347 348 348 348 346 344 343 343 343 343 342 342 342 342 342 342 344 345 344 344 345 345 346 346 346 345 345 346 348 348 347 346 347 346 347 347 346 345 344
345 344 345 344 344 343 342 341 341 341 341 341 342 342 342 342 343 343 345 345 346 347 347 348 348 348 348 349 348 346 343 343 343 343 343 344 343 343 343 343 344 344 343 344 344 345 346 346 347 347 347 348 349 349 349 348 349 349 348 349 348 346 345
344 345 344 344 344 343 342 342 342 342 342 342 343 342 342 343 343 343 344 344 345 347 347 348 348 348 348 348 349 347 343 341 341 342 343 344 343 343 344 344 344 344 343 344 344 345 346 347 347 348 349 348 349 349 350 351 350 351 350 349 349 347 345
344 344 344 344 345 345 344 344 344 343 344 344 343 344 343 343 344 344 344 345 345 346 347 347 348 348 348 348 349 347 344 341 339 340 341 342 343 343 344 345 345 344 343 344 344 345 346 346 348 349 349 349 348 349 351 351 351 350 350 350 350 348 348
345 345 345 344 345 345 345 345 344 344 344 345 344 344 344 344 344 344 344 345 345 346 346 347 347 348 348 348 348 348 347 344 342 340 340 340 342 342 344 345 345 345 344 344 344 345 345 346 347 348 349 349 349 350 351 351 351 349 350 350 351 351 351
346 347 347 346 346 346 346 345 345 345 345 345 345 345 345 345 345 344 344 345 345 346 346 347 348 348 348 348 348 348 349 348 346 343 341 340 341 342 343 345 345 344 344 345 344 344 345 347 348 348 349 350 351 351 352 352 351 351 350 350 351 352 353
347 347 347 347 347 347 346 347 347 346 346 345 345 346 346 346 346 345 345 345 345 345 346 346 347 348 347 348 348 348 349 349 350 348 344 341 340 341 342 343 344 344 344 344 343 343 344 346 348 349 350 351 352 352 353 352 352 352 352 351 351 351 351
347 347 348 348 347 347 347 347 347 347 346 346 345 345 345 346 346 346 346 346 346 346 347 347 347 348 347 348 348 348 348 349 350 350 349 346 343 342 342 342 342 343 343 343 344 344 344 346 349 349 350 351 352 352 352 353 352 352 352 352 352 352 351
346 347 347 347 348 347 347 347 346 346 346 345 345 345 345 345 346 347 347 346 347 347 347 348 347 348 348 348 348 348 348 349 350 351 352 351 348 345 343 342 342 341 342 343 345 346 345 347 348 349 350 351 352 353 353 352 352 351 351 351 352 352 352
345 346 346 347 347 347 347 347 347 346 346 346 346 347 347 346 346 346 347 346 346 348 348 349 349 348 348 348 348 348 348 349 350 352 352 352 352 349 344 343 343 344 344 345 347 348 348 348 349 350 351 351 351 352 350 350 349 349 349 349 350 350 350
344 344 344 346 346 347 347 347 348 348 347 346 346 347 347 347 347 347 348 348 348 349 349 350 350 349 350 350 350 349 350 350 350 350 350 351 351 350 345 342 345 348 349 348 349 349 349 349 350 350 351 350 350 349 349 348 347 347 347 347 347 347 348
342 343 344 344 345 345 346 347 347 348 348 347 346 345 344 345 345 345 345 345 346 348 349 350 350 351 351 350 350 350 351 349 347 347 346 348 349 349 347 345 346 348 349 350 350 350 349 350 350 350 350 350 349 349 348 347 347 347 346 345 345 345 346
342 343 343 343 344 345 345 346 347 347 347 348 347 347 346 345 345 344 344 344 344 346 348 349 349 350 351 351 349 349 349 348 347 346 346 347 347 348 348 347 347 347 347 348 350 350 349 349 349 349 349 349 349 349 349 348 347 347 346 345 345 344 345
341 341 342 342 343 344 344 344 345 346 347 348 348 348 348 347 346 346 346 345 345 346 346 347 347 348 349 348 347 346 346 346 347 346 346 347 348 347 347 348 348 347 346 347 348 348 348 348 348 348 347 347 346 347 349 349 348 347 347 346 346 346 345
339 339 340 341 342 342 343 343 344 345 346 347 347 347 348 347 347 347 347 347 346 346 346 347 347 347 348 346 344 344 343 344 345 345 345 347 348 347 347 347 347 347 347 346 346 347 347 347 347 347 347 346 346 346 348 349 349 349 348 348 348 347 346
338 339 339 340 341 341 341 342 343 344 345 345 345 346 346 346 347 347 347 346 347 347 347 348 347 347 347 346 345 344 344 344 344 344 345 347 348 348 348 348 347 347 347 346 347 348 349 348 348 348 347 347 347 348 349 350 350 351 350 350 349 349 348
336 338 338 339 340 340 341 341 341 341 342 342 343 343 344 345 345 345 345 345 345 346 346 347 347 347 346 346 346 346 346 345 345 346 346 347 348 348 349 349 349 349 349 348 348 349 349 349 348 348 348 348 348 348 349 349 349 349 349 349 349 348 348
332 335 337 339 339 338 339 339 340 340 340 340 341 341 342 343 343 342 343 343 343 344 344 345 346 346 345 346 346 347 346 346 345 346 346 347 347 348 348 348 348 348 348 348 348 348 347 348 348 348 347 347 347 347 346 347 345 343 343 344 344 344 344
321 324 329 334 336 337 337 337 337 337 337 338 339 340 340 341 340 339 339 340 340 340 342 343 344 344 344 344 344 344 344 344 344 344 344 344 344 344 345 345 346 346 345 345 345 345 344 345 345 345 344 344 344 343 343 341 337 335 335 336 337 337 337
314 315 318 323 328 332 334 335 335 334 335 335 335 337 337 338 338 337 335 336 337 338 340 341 341 341 341 341 341 342 341 341 341 342 342 342 342 343 343 343 343 343 343 343 342 342 342 342 342 342 342 342 341 339 337 333 330 329 329 330 331 331 330
312 313 312 313 316 320 324 326 327 328 328 328 328 329 331 333 334 333 331 330 332 335 337 337 337 337 336 336 336 335 335 336 337 337 338 339 340 340 341 340 340 340 340 339 338 338 337 337 338 337 337 336 335 333 332 330 330 330 330 330 330 329 329
313 312 312 312 312 312 313 314 315 315 316 316 316 317 320 323 326 327 325 324 326 329 331 332 332 331 330 329 327 326 326 328 330 332 334 336 337 337 337 337 337 337 336 336 336 335 335 334 333 333 332 332 332 332 332 332 332 332 331 331 331 330 330
317 314 314 314 314 313 312 312 312 311 310 310 310 310 310 312 315 316 316 318 323 326 327 327 327 327 326 325 324 325 326 327 327 329 331 333 335 335 334 334 333 332 332 331 330 330 332 333 334 333 333 332 332 332 333 333 333 332 331 331 330 329 328
321 316 315 316 315 314 314 313 313 313 313 312 311 310 308 308 308 308 309 313 319 324 325 326 326 326 326 325 324 325 328 329 328 328 329 329 329 328 328 328 328 328 328 327 326 325 326 329 332 334 333 332 332 332 332 332 332 332 331 330 328 326 325
324 319 316 316 316 314 314 315 316 317 318 317 317 316 315 313 311 309 309 310 312 315 318 321 320 320 323 326 325 325 328 329 329 329 329 328 328 327 327 327 327 328 328 328 328 327 327 328 330 332 332 332 332 332 332 331 331 330 329 326 323 321 317
326 322 317 316 316 316 315 316 318 319 319 320 320 320 320 319 318 317 315 314 313 312 312 312 311 312 317 322 324 326 328 328 328 327 326 326 327 327 327 327 327 327 326 325 323 322 323 325 327 327 328 329 329 330 330 329 327 325 322 318 316 313 312
327 324 319 317 318 318 318 319 319 320 321 321 321 320 321 321 320 320 319 318 318 316 314 313 311 311 313 318 322 326 327 327 327 327 325 325 325 326 326 326 325 324 323 321 319 317 318 319 320 321 321 321 322 322 322 321 319 316 314 313 311 310 309

ECMWFFLT1_850_thetae_144.txt.gz
Theta_e
344 344 344 344 343 345 346 348 350 351 352 351 351 351 351 351 352 353 353 349 344 343 342 341 341 340 339 339 339 339 341 343 346 347 348 348 349 349 349 348 347 348 349 348 347 348 346 344 345 348 346 342 342 343 343 343 342 343 345 344 344 346 346
343 344 345 345 344 345 346 347 349 351 351 351 351 350 351 352 352 353 353 349 343 342 342 341 340 339 339 339 339 339 340 343 346 347 348 348 348 348 349 350 350 348 347 348 349 348 344 341 340 342 343 342 344 344 342 344 342 342 346 345 344 345 343
344 344 345 345 345 345 347 347 348 349 350 350 350 350 351 352 352 352 352 350 345 343 343 342 339 337 338 339 340 339 339 343 346 346 348 349 349 349 349 349 350 350 349 348 348 347 345 344 342 340 341 344 347 346 344 345 345 343 344 344 345 348 345
345 344 345 346 347 346 347 348 349 349 350 350 350 350 350 350 352 352 352 351 348 345 345 345 342 341 340 340 340 340 339 340 343 346 350 351 350 351 351 350 349 350 351 350 349 349 348 349 347 342 341 343 345 346 345 345 347 346 344 343 345 348 348
347 344 345 347 348 347 347 348 349 349 349 350 350 350 350 350 351 353 352 352 352 350 349 349 349 348 345 343 343 344 341 338 339 344 350 352 352 351 351 351 350 350 351 351 350 349 346 347 349 348 345 343 344 346 346 345 345 345 343 341 345 349 351
346 345 345 347 347 348 348 348 349 349 349 350 350 349 351 351 352 353 353 353 353 352 352 352 352 352 350 348 348 348 346 341 338 340 346 350 351 351 352 351 351 351 351 351 351 350 347 346 349 352 351 349 349 350 350 350 349 349 347 343 344 348 352
345 345 345 346 346 347 348 349 348 349 349 349 350 350 350 351 352 352 352 353 353 353 353 353 353 353 352 351 351 350 348 346 342 342 345 348 349 350 351 351 351 351 352 352 352 352 351 350 349 350 351 351 352 352 353 352 349 349 350 346 343 345 347
346 346 346 346 346 345 348 349 348 348 350 351 351 351 351 351 352 353 353 353 353 353 354 353 353 353 353 353 352 351 350 349 348 347 348 349 350 351 351 352 352 351 351 352 352 352 352 352 352 351 350 351 352 351 351 350 346 346 350 350 348 347 349
346 344 344 345 345 345 346 348 348 348 351 352 351 350 351 353 353 353 353 351 350 352 353 352 353 354 354 352 352 352 351 350 351 350 350 351 352 352 352 352 352 351 351 352 353 352 352 352 352 352 351 350 350 349 347 347 346 348 350 350 348 347 349
345 343 343 343 344 345 345 347 349 348 352 354 350 347 349 351 351 351 350 347 346 348 350 350 352 355 354 351 350 352 353 352 351 351 352 351 352 353 352 352 352 353 352 352 352 353 353 352 353 352 350 347 347 346 345 346 347 349 351 351 349 348 349
345 343 342 342 344 345 345 348 349 349 353 353 348 345 345 345 344 345 345 345 345 346 349 351 353 355 354 350 349 350 352 353 353 352 352 352 351 352 352 351 352 352 353 352 352 353 354 354 353 352 350 349 350 350 348 348 348 349 351 353 354 354 353
345 346 343 342 343 345 346 349 350 352 353 350 347 346 343 340 341 342 342 343 344 345 347 350 352 352 351 349 349 348 347 350 353 353 353 353 352 351 351 351 351 352 353 353 353 353 354 354 354 354 352 351 351 353 352 350 350 349 349 352 355 355 355
344 346 345 344 345 346 348 350 351 353 352 347 347 349 344 338 340 342 342 343 344 344 346 347 349 348 347 348 349 347 344 346 350 353 354 353 353 352 352 351 350 351 352 353 353 353 353 354 354 355 355 353 352 353 354 352 351 349 347 349 354 355 355
346 347 347 347 348 349 350 351 352 354 353 349 349 350 347 342 340 340 341 342 343 344 346 346 347 348 347 348 349 348 347 345 346 349 351 353 353 353 352 352 351 351 353 354 354 353 353 353 354 354 355 355 354 354 355 355 353 351 349 349 352 354 355
349 348 348 348 349 350 351 351 351 353 354 353 352 353 352 350 347 344 342 343 343 343 344 346 347 348 348 348 348 348 348 348 345 345 347 349 350 350 351 353 352 352 353 354 354 354 353 353 354 354 354 355 355 355 355 355 355 355 354 352 353 355 355
350 349 350 351 351 352 353 353 353 354 355 355 353 353 354 354 354 352 349 348 346 344 344 345 346 347 348 348 349 349 349 349 348 346 345 346 346 345 348 352 354 354 354 355 355 354 354 354 354 355 355 355 355 356 355 355 355 355 354 352 353 354 355
351 351 352 352 352 352 352 352 351 351 352 352 352 352 351 352 353 350 347 346 347 347 347 347 346 346 347 347 348 349 349 349 350 348 346 347 346 346 346 348 351 353 354 355 355 353 353 354 354 354 355 355 355 355 354 354 354 353 352 351 352 352 354
349 349 350 351 351 349 347 346 346 346 347 348 350 351 351 353 354 351 345 344 346 346 347 348 348 348 348 349 349 349 349 349 350 349 348 347 347 347 346 346 347 348 349 351 354 353 352 352 353 353 354 354 354 354 353 353 353 352 351 351 351 351 352
346 347 348 348 349 347 345 344 344 345 346 346 346 347 348 351 353 354 352 349 346 345 345 345 346 347 349 350 351 352 352 352 351 351 350 349 347 346 346 346 347 347 346 347 350 352 353 353 353 353 353 354 354 355 355 354 352 352 352 352 352 352 352
345 346 347 347 348 347 346 345 345 345 346 346 346 346 346 346 349 352 354 352 350 350 348 345 345 346 347 349 352 354 354 355 354 353 352 351 350 348 346 346 346 347 347 346 346 347 349 352 354 355 354 354 355 355 355 353 351 351 352 352 352 351 351
345 346 346 347 347 347 347 347 346 346 346 346 347 347 347 347 348 349 351 352 353 354 351 348 348 348 347 348 352 354 354 355 355 355 354 353 352 351 349 347 347 346 347 347 346 345 346 349 352 355 355 355 355 354 354 354 352 351 350 350 350 349 349
343 345 346 347 347 346 347 347 347 347 347 347 348 348 349 349 348 350 351 352 353 353 352 352 353 352 351 351 353 353 352 353 354 355 356 355 354 354 352 351 350 349 347 347 347 347 347 346 349 351 352 353 353 353 353 353 351 350 350 349 348 347 347
342 343 345 346 345 345 345 346 347 347 348 348 348 348 348 348 348 349 351 353 353 352 352 353 354 353 353 353 352 352 352 352 352 353 354 353 352 352 351 351 352 351 349 348 348 348 348 346 347 348 349 349 350 351 352 351 350 349 349 348 348 347 347
342 342 343 344 344 344 344 345 347 347 347 348 348 348 347 347 347 348 348 350 352 351 351 351 352 351 352 352 352 352 352 351 351 352 351 350 349 350 349 350 351 351 350 349 350 350 349 349 349 348 348 348 348 350 351 351 350 349 349 348 348 347 347
341 341 342 342 343 344 344 345 345 346 347 348 348 348 347 346 345 344 344 345 347 348 349 350 351 351 350 351 352 352 351 351 350 350 350 349 348 349 349 348 348 349 349 349 349 349 349 349 349 349 348 348 348 348 349 349 349 348 348 348 348 348 347
341 341 341 342 342 342 343 344 345 346 347 348 347 348 347 347 346 345 344 345 346 348 349 349 350 349 347 347 350 351 350 349 348 347 347 346 346 346 347 347 348 348 348 347 347 348 348 348 348 348 348 347 347 347 347 347 347 346 347 348 348 349 349
340 341 340 340 341 343 343 343 344 345 346 346 346 346 346 347 347 346 346 346 346 347 348 347 347 347 346 347 348 348 347 346 345 343 343 344 344 343 344 345 347 348 348 348 348 347 347 348 348 348 347 347 347 347 347 347 347 346 347 348 349 350 350
338 338 338 339 340 341 341 342 343 343 344 343 344 345 345 346 346 345 346 346 346 346 346 346 346 346 347 347 347 346 346 346 344 344 344 344 344 344 344 346 347 347 349 350 349 349 348 349 349 348 348 348 348 349 348 348 347 347 347 347 348 347 347
335 335 336 337 337 338 339 340 340 340 341 341 342 343 344 344 345 344 344 344 345 345 346 346 346 345 345 346 346 346 346 346 345 345 345 345 345 345 346 347 347 348 349 349 349 348 348 348 348 347 348 348 348 348 347 346 346 346 345 344 343 342 342
335 334 334 334 334 335 337 337 337 338 338 339 340 341 341 342 342 342 343 343 343 343 344 345 345 344 345 345 345 345 345 345 345 345 344 345 345 345 345 346 346 347 347 347 346 346 346 346 346 346 346 346 346 346 344 342 341 339 337 335 335 334 334
333 334 333 332 331 331 332 333 333 334 334 335 337 337 338 339 339 339 339 339 341 342 342 342 343 343 344 343 343 343 343 343 343 343 343 343 342 343 344 344 344 345 345 344 344 343 343 343 343 343 343 342 341 339 337 335 333 332 331 330 330 329 329
327 329 329 329 329 328 328 328 329 329 330 330 330 330 331 333 335 336 335 335 337 339 339 340 340 340 340 340 340 339 340 340 340 341 342 342 342 342 342 342 343 343 342 342 342 341 341 341 339 339 338 336 335 333 332 331 331 330 330 330 330 330 329
318 319 320 321 323 323 322 321 322 323 324 324 323 322 322 324 328 330 330 331 334 334 335 335 335 334 334 334 334 334 336 337 337 337 339 340 341 341 340 340 339 339 338 338 337 336 335 334 334 333 332 332 332 332 332 332 332 331 330 330 329 328 327
316 314 314 315 316 316 314 312 312 312 314 315 316 315 316 321 325 327 327 328 328 327 328 329 328 328 328 328 328 330 332 335 336 336 336 337 337 338 338 337 336 336 335 335 334 334 333 332 332 332 332 332 333 333 333 332 332 330 329 327 326 324 322
318 315 314 313 313 313 313 312 311 310 309 309 309 308 311 316 322 324 326 326 325 325 325 326 326 327 327 327 327 327 328 330 331 331 331 332 332 333 333 332 331 331 331 329 329 329 329 330 329 329 330 330 331 331 332 331 331 329 327 325 323 320 318
317 315 315 316 317 317 318 317 317 316 314 313 312 310 310 311 313 316 319 320 321 320 321 324 325 327 328 329 329 328 328 328 328 328 327 328 328 329 329 328 328 328 328 327 327 327 327 327 327 326 326 328 329 330 331 330 329 326 323 319 316 314 313
320 318 318 319 319 319 320 321 321 321 320 319 319 317 316 315 314 313 313 313 313 312 314 317 321 325 328 329 329 328 328 328 327 327 327 327 327 327 327 327 326 326 325 324 324 325 327 328 328 328 328 329 329 328 327 325 322 318 315 313 311 310 310
322 321 322 322 321 320 321 322 322 323 323 322 322 321 320 320 319 318 316 314 313 311 311 313 317 322 326 328 328 327 327 326 325 326 326 326 325 325 325 324 322 320 318 316 316 317 319 321 322 323 323 323 322 319 317 316 314 312 312 311 310 310 308